Previsão horária em Alkmaar

Hoje, 16 Junho, Quarta-feira

Tempo Temperatura Precipitação Vento Pressão Humidade
00:00 +13°C° 0 mm 3 m/s 763 mmHg 90%
01:00 +12°C° 0 mm 3 m/s 763 mmHg 90%
02:00 +12°C° 0 mm 3 m/s 762 mmHg 90%
03:00 +12°C° 0 mm 3 m/s 762 mmHg 91%
04:00 +14°C° 0 mm 3 m/s 762 mmHg 86%
05:00 +16°C° 0 mm 3 m/s 762 mmHg 81%
06:00 +17°C° 0 mm 3 m/s 761 mmHg 76%
07:00 +19°C° 0 mm 3 m/s 761 mmHg 70%
08:00 +21°C° 0 mm 3 m/s 761 mmHg 65%
09:00 +22°C° 0 mm 3 m/s 761 mmHg 59%
10:00 +25°C° 0 mm 2 m/s 760 mmHg 56%
11:00 +26°C° 0 mm 2 m/s 760 mmHg 53%
12:00 +27°C° 0 mm 2 m/s 760 mmHg 50%
13:00 +27°C° 0 mm 2 m/s 759 mmHg 50%
14:00 +28°C° 0 mm 2 m/s 759 mmHg 49%
15:00 +28°C° 0 mm 2 m/s 758 mmHg 49%
16:00 +27°C° 0 mm 2 m/s 758 mmHg 55%
17:00 +26°C° 0 mm 2 m/s 758 mmHg 61%
18:00 +25°C° 0 mm 2 m/s 758 mmHg 67%
19:00 +24°C° 0 mm 3 m/s 758 mmHg 73%
20:00 +21°C° 0 mm 3 m/s 758 mmHg 79%
21:00 +20°C° 0 mm 3 m/s 758 mmHg 85%
22:00 +20°C° 0 mm 3 m/s 757 mmHg 86%
23:00 +20°C° 0 mm 3 m/s 757 mmHg 88%

Amanhã, 17 Junho, Quinta-feira

Tempo Temperatura Precipitação Vento Pressão Humidade
00:00 +20°C° 0 mm 4 m/s 757 mmHg 89%
01:00 +20°C° 0 mm 4 m/s 757 mmHg 88%
02:00 +20°C° 0 mm 4 m/s 756 mmHg 87%
03:00 +20°C° 0 mm 4 m/s 756 mmHg 85%
04:00 +20°C° 0.2 mm 4 m/s 756 mmHg 85%
05:00 +21°C° 0.2 mm 3 m/s 756 mmHg 86%
06:00 +21°C° 0.2 mm 3 m/s 756 mmHg 86%
07:00 +22°C° 0.2 mm 4 m/s 756 mmHg 82%
08:00 +25°C° 0.2 mm 5 m/s 756 mmHg 78%
09:00 +26°C° 0.2 mm 5 m/s 756 mmHg 73%
10:00 +24°C° 0.2 mm 6 m/s 757 mmHg 72%
11:00 +24°C° 0.2 mm 6 m/s 757 mmHg 71%
12:00 +24°C° 0.2 mm 6 m/s 758 mmHg 70%
13:00 +24°C° 0 mm 6 m/s 758 mmHg 70%
14:00 +25°C° 0 mm 5 m/s 758 mmHg 69%
15:00 +23°C° 0 mm 5 m/s 758 mmHg 69%
16:00 +23°C° 0 mm 4 m/s 758 mmHg 72%
17:00 +22°C° 0 mm 4 m/s 758 mmHg 75%
18:00 +21°C° 0 mm 3 m/s 759 mmHg 78%
19:00 +20°C° 0 mm 3 m/s 759 mmHg 83%
20:00 +19°C° 0 mm 3 m/s 759 mmHg 88%
21:00 +17°C° 0 mm 3 m/s 760 mmHg 93%
22:00 +17°C° 0 mm 3 m/s 760 mmHg 93%
23:00 +18°C° 0 mm 3 m/s 760 mmHg 92%

Depois de amanhã, 18 Junho, Sexta-feira

Tempo Temperatura Precipitação Vento Pressão Humidade
00:00 +18°C° 0 mm 3 m/s 760 mmHg 91%
01:00 +17°C° 0.1 mm 3 m/s 760 mmHg 92%
02:00 +17°C° 0.1 mm 4 m/s 760 mmHg 93%
03:00 +17°C° 0.1 mm 4 m/s 760 mmHg 94%
04:00 +17°C° 5.3 mm 4 m/s 760 mmHg 95%
05:00 +16°C° 5.3 mm 5 m/s 759 mmHg 95%
06:00 +16°C° 5.3 mm 5 m/s 759 mmHg 96%
07:00 +16°C° 2.5 mm 6 m/s 759 mmHg 96%
08:00 +16°C° 2.5 mm 7 m/s 759 mmHg 96%
09:00 +15°C° 2.5 mm 8 m/s 759 mmHg 95%
10:00 +17°C° 0.2 mm 8 m/s 759 mmHg 92%
11:00 +18°C° 0.2 mm 7 m/s 759 mmHg 89%
12:00 +20°C° 0.2 mm 7 m/s 759 mmHg 86%
13:00 +21°C° 0.8 mm 6 m/s 758 mmHg 85%
14:00 +22°C° 0.8 mm 5 m/s 758 mmHg 84%
15:00 +23°C° 0.8 mm 4 m/s 757 mmHg 84%
16:00 +23°C° 1 mm 4 m/s 757 mmHg 84%
17:00 +23°C° 1 mm 4 m/s 757 mmHg 85%
18:00 +22°C° 1 mm 3 m/s 757 mmHg 86%
19:00 +21°C° 0.6 mm 3 m/s 757 mmHg 89%
20:00 +20°C° 0.6 mm 4 m/s 757 mmHg 91%
21:00 +19°C° 0.6 mm 4 m/s 757 mmHg 93%
22:00 +19°C° 0 mm 4 m/s 757 mmHg 94%
23:00 +19°C° 0 mm 5 m/s 757 mmHg 95%

19 Junho, Sábado

Tempo Temperatura Precipitação Vento Pressão Humidade
00:00 +19°C° 0 mm 5 m/s 757 mmHg 95%
01:00 +17°C° 0 mm 6 m/s 757 mmHg 95%
02:00 +16°C° 0 mm 7 m/s 757 mmHg 94%
03:00 +15°C° 0 mm 8 m/s 757 mmHg 93%
04:00 +15°C° 0 mm 8 m/s 758 mmHg 92%
05:00 +15°C° 0 mm 8 m/s 759 mmHg 92%
06:00 +15°C° 0 mm 9 m/s 760 mmHg 91%
07:00 +15°C° 0 mm 8 m/s 760 mmHg 88%
08:00 +15°C° 0 mm 8 m/s 761 mmHg 84%
09:00 +15°C° 0 mm 7 m/s 762 mmHg 80%
10:00 +15°C° 0 mm 6 m/s 762 mmHg 77%
11:00 +15°C° 0 mm 6 m/s 763 mmHg 73%
12:00 +16°C° 0 mm 5 m/s 764 mmHg 70%
13:00 +17°C° 0 mm 4 m/s 764 mmHg 69%
14:00 +18°C° 0 mm 3 m/s 764 mmHg 67%
15:00 +18°C° 0 mm 3 m/s 764 mmHg 66%
16:00 +17°C° 0 mm 4 m/s 763 mmHg 68%
17:00 +17°C° 0 mm 4 m/s 763 mmHg 71%
18:00 +15°C° 0 mm 5 m/s 763 mmHg 74%
19:00 +15°C° 0 mm 6 m/s 762 mmHg 77%
20:00 +14°C° 0 mm 6 m/s 762 mmHg 81%
21:00 +13°C° 0 mm 6 m/s 762 mmHg 84%
22:00 +12°C° 0 mm 7 m/s 761 mmHg 85%
23:00 +12°C° 0 mm 7 m/s 761 mmHg 86%

20 Junho, Domingo

Tempo Temperatura Precipitação Vento Pressão Humidade
00:00 +12°C° 0 mm 7 m/s 760 mmHg 86%
01:00 +12°C° 1.9 mm 8 m/s 759 mmHg 90%
02:00 +12°C° 1.9 mm 8 m/s 758 mmHg 93%
03:00 +12°C° 1.9 mm 9 m/s 757 mmHg 96%
04:00 +13°C° 4.4 mm 8 m/s 757 mmHg 96%
05:00 +13°C° 4.4 mm 8 m/s 756 mmHg 95%
06:00 +15°C° 4.4 mm 7 m/s 756 mmHg 95%
07:00 +17°C° 0 mm 6 m/s 755 mmHg 90%
08:00 +20°C° 0 mm 5 m/s 755 mmHg 86%
09:00 +22°C° 0 mm 5 m/s 754 mmHg 81%
10:00 +23°C° 0.1 mm 5 m/s 754 mmHg 79%
11:00 +26°C° 0.1 mm 5 m/s 754 mmHg 77%
12:00 +27°C° 0.1 mm 5 m/s 754 mmHg 75%
13:00 +25°C° 1.5 mm 4 m/s 754 mmHg 80%
14:00 +22°C° 1.5 mm 4 m/s 755 mmHg 86%
15:00 +21°C° 1.5 mm 3 m/s 755 mmHg 91%
16:00 +21°C° 0.1 mm 3 m/s 755 mmHg 89%
17:00 +23°C° 0.1 mm 2 m/s 755 mmHg 87%
18:00 +23°C° 0.1 mm 2 m/s 755 mmHg 85%
19:00 +21°C° 0.3 mm 2 m/s 755 mmHg 88%
20:00 +20°C° 0.3 mm 2 m/s 755 mmHg 91%
21:00 +19°C° 0.3 mm 2 m/s 755 mmHg 94%
22:00 +19°C° 0.3 mm 3 m/s 755 mmHg 95%
23:00 +19°C° 0.3 mm 3 m/s 755 mmHg 95%

21 Junho, Segunda-feira

Tempo Temperatura Precipitação Vento Pressão Humidade
00:00 +18°C° 0.3 mm 4 m/s 755 mmHg 95%
01:00 +18°C° 0 mm 4 m/s 755 mmHg 95%
02:00 +18°C° 0 mm 4 m/s 755 mmHg 95%
03:00 +17°C° 0 mm 5 m/s 755 mmHg 95%
04:00 +17°C° 0 mm 5 m/s 756 mmHg 93%
05:00 +19°C° 0 mm 5 m/s 756 mmHg 91%
06:00 +19°C° 0 mm 5 m/s 756 mmHg 89%
07:00 +20°C° 0 mm 5 m/s 756 mmHg 82%
08:00 +21°C° 0 mm 5 m/s 757 mmHg 76%
09:00 +22°C° 0 mm 5 m/s 757 mmHg 69%
10:00 +21°C° 0 mm 4 m/s 757 mmHg 68%
11:00 +21°C° 0 mm 4 m/s 757 mmHg 67%
12:00 +21°C° 0 mm 3 m/s 757 mmHg 65%
13:00 +20°C° 0 mm 3 m/s 757 mmHg 67%
14:00 +20°C° 0 mm 3 m/s 757 mmHg 70%
15:00 +20°C° 0 mm 2 m/s 757 mmHg 72%
16:00 +20°C° 0 mm 3 m/s 757 mmHg 72%
17:00 +20°C° 0 mm 3 m/s 756 mmHg 73%
18:00 +20°C° 0 mm 3 m/s 756 mmHg 73%
19:00 +19°C° 0 mm 3 m/s 756 mmHg 76%
20:00 +18°C° 0 mm 4 m/s 756 mmHg 79%
21:00 +17°C° 0 mm 4 m/s 756 mmHg 82%
22:00 +17°C° 0 mm 4 m/s 756 mmHg 84%
23:00 +17°C° 0 mm 4 m/s 756 mmHg 86%
Mostrar mais